This is the latest recevied weather packets stored in our database for station/object KD8BMB. If no packets are shown the sender has not sent any weather packets the latest 1 day(s).
| Time | Temp. | Humidity | Pressure | Rain* | Wind** | Luminosity | Snow |
|---|---|---|---|---|---|---|---|
| 1777973551 | 13.89° C | 88% | 1000.2 hPa | 0 mm | 0.89 m/s, 230° | 0 W/m² | - |
| 1777973248 | 13.89° C | 88% | 1000 hPa | 0 mm | 1.79 m/s, 248° | 0 W/m² | - |
| 1777972947 | 13.89° C | 88% | 999.8 hPa | 0 mm | 0.89 m/s, 291° | 0 W/m² | - |
| 1777972644 | 13.89° C | 88% | 999.9 hPa | 0 mm | 0.89 m/s, 234° | 0 W/m² | - |
| 1777972342 | 14.44° C | 88% | 999.8 hPa | 0 mm | 0.89 m/s, 291° | 0 W/m² | - |
| 1777972039 | 14.44° C | 88% | 999.8 hPa | 0 mm | 1.79 m/s, 261° | 0 W/m² | - |
| 1777971737 | 14.44° C | 87% | 999.8 hPa | 0 mm | 1.34 m/s, 284° | 0 W/m² | - |
| 1777971434 | 14.44° C | 87% | 1000 hPa | 0 mm | 0.89 m/s, 284° | 0 W/m² | - |
| 1777971132 | 14.44° C | 87% | 999.8 hPa | 0 mm | 0.89 m/s, 250° | 0 W/m² | - |
| 1777970829 | 14.44° C | 86% | 999.7 hPa | 0 mm | 0 m/s | 0 W/m² | - |
| 1777970529 | 15° C | 86% | 999.7 hPa | 0 mm | 0.89 m/s, 231° | 0 W/m² | - |
| 1777970225 | 15° C | 86% | 999.6 hPa | 0 mm | 1.34 m/s, 285° | 0 W/m² | - |
| 1777969922 | 15° C | 85% | 999.5 hPa | 0 mm | 1.34 m/s, 292° | 0 W/m² | - |
| 1777969617 | 15° C | 85% | 999.5 hPa | 0 mm | 0.45 m/s, 218° | 0 W/m² | - |
| 1777969315 | 15° C | 85% | 999.5 hPa | 0 mm | 0 m/s | 0 W/m² | - |
| 1777969010 | 15° C | 84% | 999.2 hPa | 0 mm | 0.45 m/s, 237° | 0 W/m² | - |
| 1777968708 | 15° C | 84% | 999.2 hPa | 0 mm | 1.79 m/s, 279° | 0 W/m² | - |
| 1777968405 | 15° C | 84% | 999.4 hPa | 0 mm | 0.45 m/s, 247° | 0 W/m² | - |
| 1777968101 | 15° C | 84% | 999.2 hPa | 0 mm | 1.34 m/s, 252° | 0 W/m² | - |
| 1777967797 | 15° C | 83% | 999 hPa | 0 mm | 0 m/s | 0 W/m² | - |
| 1777967494 | 15° C | 84% | 998.7 hPa | 0 mm | 1.34 m/s, 228° | 0 W/m² | - |
| 1777967191 | 15° C | 83% | 998.9 hPa | 0 mm | 1.34 m/s, 298° | 0 W/m² | - |
| 1777966888 | 15° C | 83% | 998.5 hPa | 0 mm | 0.45 m/s, 301° | 0 W/m² | - |
| 1777966586 | 15.56° C | 82% | 998.6 hPa | 0 mm | 0.89 m/s, 264° | 0 W/m² | - |
| 1777966284 | 15.56° C | 82% | 998.5 hPa | 0 mm | 0.89 m/s, 253° | 0 W/m² | - |
* Rain latest hour (hover to see other rain measurements)
** Current wind speed in m/s (hover to see current wind gust speed)